Gunnison, CO

8:51 AM MST on February 22, 2018 (GMT -0700)
Gunnison County

Weather History for KGUC - December, 2011

Change the Weather History Date:

Friday, December 23, 2011

  Actual Average Record
Temperature  
Mean Temperature 6 °F -  
Max Temperature 23 °F 22 °F 39 °F (2016)
Min Temperature -11 °F 0 °F -14 °F (2001)
Degree Days  
Heating Degree Days 59    
Moisture  
Dew Point -6 °F    
Average Humidity 63    
Maximum Humidity 92    
Minimum Humidity 36    
Precipitation  
Precipitation 0.00 in - - ()
Sea Level Pressure  
Sea Level Pressure 30.39 in    
Wind  
Wind Speed 1 mph (NNE)    
Max Wind Speed 8 mph    
Max Gust Speed -    
Visibility 10 miles    
Events      
Averages and records for this station are not official NWS values.
T = Trace of Precipitation, MM = Missing Value Source: NWS Daily Summary

Daily Weather History Graph

Daily Weather History Graph

Search for Another Location

Airport or City:

Trip Planner

Search our weather history database for the weather conditions in past years. The results will help you decide how hot, cold, wet, or windy it might be!

Date:

Astronomy

Dec. 23, 2011 Rise Set
Actual Time 7:22 AM MST 4:51 PM MST
Civil Twilight 6:52 AM MST 5:20 PM MST
Nautical Twilight 6:19 AM MST 5:54 PM MST
Astronomical Twilight 5:47 AM MST 6:26 PM MST
Moon 6:14 AM MST (12/23) 4:02 PM MST (12/23)
Length of Visible Light 10h 28m
Length of Day
9h 28m
Waning Crescent, 1% of the Moon is Illuminated
Dec 23
Waning Crescent
Dec 24
New
Dec 31
First Quarter
Jan 9
Full
Jan 16
Last Quarter

Hourly Weather History & Observations

Time (MST) Temp. Windchill Dew Point Humidity Pressure Visibility Wind Dir Wind Speed Gust Speed Precip Events Conditions
12:35 AM -0.4 °F - -7.6 °F 72% 30.32 in 10.0 mi Calm Calm - N/A   Clear
12:55 AM -2.2 °F - -11.2 °F 66% 30.32 in 10.0 mi Calm Calm - N/A   Clear
12:56 AM -2.2 °F - -11.2 °F 66% 30.33 in 10.0 mi Calm Calm - N/A   Clear
1:35 AM -2.2 °F - -9.4 °F 71% 30.34 in 10.0 mi Calm Calm - N/A   Clear
1:55 AM -2.2 °F - -7.6 °F 78% 30.34 in 10.0 mi Calm Calm - N/A   Clear
2:15 AM -2.2 °F -10.4 °F -9.4 °F 71% 30.35 in 10.0 mi ENE 3.5 mph - N/A   Clear
2:35 AM -4.0 °F - -13.0 °F 65% 30.36 in 10.0 mi Calm Calm - N/A   Clear
2:55 AM -5.8 °F - -11.2 °F 77% 30.36 in 10.0 mi Calm Calm - N/A   Clear
3:15 AM -4.0 °F -14.6 °F -9.4 °F 78% 30.36 in 10.0 mi NNW 4.6 mph - N/A   Clear
3:35 AM -5.8 °F - -11.2 °F 77% 30.37 in 10.0 mi Calm Calm - N/A   Clear
3:55 AM -7.6 °F - -16.6 °F 65% 30.37 in 10.0 mi Calm Calm - N/A   Clear
4:15 AM -7.6 °F - -9.4 °F 92% 30.37 in 10.0 mi Calm Calm - N/A   Clear
4:35 AM -7.6 °F - -14.8 °F 71% 30.38 in 10.0 mi Calm Calm - N/A   Clear
5:15 AM -7.6 °F -16.5 °F -11.2 °F 84% 30.39 in 10.0 mi NE 3.5 mph - N/A   Clear
5:35 AM -7.6 °F - -14.8 °F 71% 30.39 in 10.0 mi Calm Calm - N/A   Clear
5:55 AM -7.6 °F -18.8 °F -11.2 °F 84% 30.40 in 10.0 mi North 4.6 mph - N/A   Clear
6:55 AM -9.4 °F - -16.6 °F 71% 30.42 in 10.0 mi Calm Calm - N/A   Clear
7:15 AM -11.2 °F - -20.2 °F 64% 30.43 in 10.0 mi Calm Calm - N/A   Clear
7:55 AM -9.4 °F - -18.4 °F 65% 30.44 in 10.0 mi Calm Calm - N/A   Clear
8:35 AM -5.8 °F - -11.2 °F 77% 30.45 in 10.0 mi Calm Calm - N/A   Clear
8:55 AM -2.2 °F - -9.4 °F 71% 30.45 in 10.0 mi Calm Calm - N/A   Clear
9:15 AM -4.0 °F - -11.2 °F 71% 30.46 in 10.0 mi Calm Calm - N/A   Clear
9:35 AM -0.4 °F - -2.2 °F 92% 30.46 in 10.0 mi Calm Calm - N/A   Clear
10:55 AM 8.6 °F 2.0 °F -2.2 °F 62% 30.45 in 10.0 mi ENE 3.5 mph - N/A   Clear
11:15 AM 8.6 °F - -4.0 °F 57% 30.43 in 10.0 mi Calm Calm - N/A   Clear
11:55 AM 12.2 °F - -2.2 °F 53% 30.41 in 10.0 mi Calm Calm - N/A   Clear
12:15 PM 12.2 °F - -0.4 °F 57% 30.39 in 10.0 mi Calm Calm - N/A   Clear
12:35 PM 15.8 °F - -0.4 °F 49% 30.38 in 10.0 mi Calm Calm - N/A   Clear
1:15 PM 17.6 °F - -0.4 °F 45% 30.36 in 10.0 mi Calm Calm - N/A   Clear
1:36 PM 19.4 °F - 1.4 °F 46% 30.35 in 10.0 mi Calm Calm - N/A   Clear
1:55 PM 19.4 °F - -0.4 °F 42% 30.35 in 10.0 mi Calm Calm - N/A   Clear
2:15 PM 19.4 °F - -0.4 °F 42% 30.34 in 10.0 mi Calm Calm - N/A   Clear
2:35 PM 21.2 °F - -0.4 °F 39% 30.34 in 10.0 mi Calm Calm - N/A   Clear
3:15 PM 23.0 °F - -0.4 °F 36% 30.34 in 10.0 mi Calm Calm - N/A   Clear
3:35 PM 23.0 °F - -0.4 °F 36% 30.34 in 10.0 mi Calm Calm - N/A   Clear
3:56 PM 23.0 °F 18.4 °F -0.4 °F 36% 30.34 in 10.0 mi SSW 3.5 mph - N/A   Clear
4:15 PM 21.2 °F - -0.4 °F 39% 30.34 in 10.0 mi Calm Calm - N/A   Clear
4:35 PM 21.2 °F - -0.4 °F 39% 30.35 in 10.0 mi Calm Calm - N/A   Clear
5:15 PM 15.8 °F - -2.2 °F 45% 30.36 in 10.0 mi Calm Calm - N/A   Clear
5:35 PM 15.8 °F - -0.4 °F 49% 30.37 in 10.0 mi Calm Calm - N/A   Clear
6:15 PM 12.2 °F 0.7 °F -2.2 °F 53% 30.39 in 10.0 mi NNW 8.1 mph - N/A   Clear
6:35 PM 10.4 °F 4.0 °F -0.4 °F 62% 30.40 in 10.0 mi North 3.5 mph - N/A   Clear
6:55 PM 10.4 °F 4.0 °F -2.2 °F 57% 30.40 in 10.0 mi North 3.5 mph - N/A   Clear
7:15 PM 10.4 °F - -2.2 °F 57% 30.41 in 10.0 mi Calm Calm - N/A   Clear
7:35 PM 6.8 °F -0.1 °F -5.8 °F 56% 30.41 in 10.0 mi ENE 3.5 mph - N/A   Clear
7:55 PM 6.8 °F - -2.2 °F 67% 30.42 in 10.0 mi Calm Calm - N/A   Clear
8:15 PM 3.2 °F -4.2 °F -5.8 °F 66% 30.42 in 10.0 mi ENE 3.5 mph - N/A   Clear
8:35 PM 6.8 °F - -2.2 °F 67% 30.42 in 10.0 mi Calm Calm - N/A   Clear
8:55 PM 6.8 °F - -4.0 °F 61% 30.42 in 10.0 mi Calm Calm - N/A   Clear
9:16 PM 5.0 °F - -2.2 °F 72% 30.43 in 10.0 mi Calm Calm - N/A   Clear
9:35 PM 3.2 °F - -5.8 °F 66% 30.43 in 10.0 mi Calm Calm - N/A   Clear
9:55 PM 3.2 °F - -5.8 °F 66% 30.44 in 10.0 mi Calm Calm - N/A   Clear
10:15 PM 3.2 °F - -2.2 °F 78% 30.45 in 10.0 mi Calm Calm - N/A   Clear
10:55 PM 1.4 °F - -0.4 °F 92% 30.46 in 10.0 mi Calm Calm - N/A   Clear
11:16 PM -0.4 °F - -11.2 °F 60% 30.45 in 10.0 mi Calm Calm - N/A   Clear
11:55 PM -0.4 °F - -11.2 °F 60% 30.46 in 10.0 mi Calm Calm - N/A   Clear